Weather History for The Dalles, OR

Change the Weather History Date:

Thursday, January 16, 2014

  Actual Average Record
Temperature  
Mean Temperature 37 °F -  
Max Temperature 48 °F 41 °F 59 °F (2011)
Min Temperature 26 °F 30 °F -4 °F (1950)
Degree Days  
Heating Degree Days 28    
Moisture  
Dew Point 31 °F    
Average Humidity 88    
Maximum Humidity 100    
Minimum Humidity 61    
Precipitation  
Precipitation 0.00 in - - ()
Sea Level Pressure  
Sea Level Pressure 30.54 in    
Wind  
Wind Speed 2 mph (SE)    
Max Wind Speed 8 mph    
Max Gust Speed -    
Visibility 7 miles    
Events Fog    
Averages and records for this station are not official NWS values.
T = Trace of Precipitation, MM = Missing Value Source: NWS Daily Summary

Daily Weather History Graph

Daily Weather History Graph

Search for Another Location

Airport:

Trip Planner

Search our weather history database for the weather conditions in past years. The results will help you decide how hot, cold, wet, or windy it might be!

Date:

Astronomy

Jan. 16, 2014 Rise Set
Actual Time 7:40 AM PST 4:48 PM PST
Civil Twilight 7:07 AM PST 5:21 PM PST
Nautical Twilight 6:30 AM PST 5:58 PM PST
Astronomical Twilight 5:55 AM PST 6:34 PM PST
Moon 5:50 PM PST (1/16) 7:32 AM PST (1/16)
Length of Visible Light 10h 14m
Length of Day
9h 08m
Full, 100% of the Moon is Illuminated
Jan 16
Full
Jan 23
Last Quarter
Jan 30
New
Feb 6
First Quarter
Feb 14
Full

Hourly Weather History & Observations

Time (PST) Temp. Windchill Dew Point Humidity Pressure Visibility Wind Dir Wind Speed Gust Speed Precip Events Conditions
12:53 AM 30.9 °F 27.5 °F 28.9 °F 92% 30.57 in 10.0 mi SE 3.5 mph - N/A   Clear
1:53 AM 28.9 °F 23.9 °F 27.0 °F 92% 30.57 in 10.0 mi SSE 4.6 mph - N/A   Clear
2:53 AM 28.9 °F - 26.1 °F 89% 30.58 in 10.0 mi Calm Calm - N/A   Clear
4:53 AM 28.0 °F - 26.1 °F 92% 30.58 in 10.0 mi Calm Calm - N/A   Clear
5:53 AM 26.1 °F - 24.1 °F 92% 30.58 in 9.0 mi Calm Calm - N/A   Clear
6:53 AM 28.0 °F - 27.0 °F 96% 30.59 in 8.0 mi Calm Calm - N/A   Clear
7:05 AM 28.0 °F 24.2 °F 27.0 °F 96% 30.58 in 1.8 mi South 3.5 mph - N/A   Partly Cloudy
7:53 AM 28.0 °F - 26.1 °F 92% 30.61 in 0.2 mi Calm Calm - N/A Fog Light Freezing Fog
8:53 AM 30.0 °F - 28.9 °F 96% 30.62 in 0.2 mi Calm Calm - N/A Fog Light Freezing Fog
9:53 AM 30.0 °F - 30.0 °F 100% 30.62 in 0.2 mi Calm Calm - N/A Fog Light Freezing Fog
10:36 AM 32.0 °F - 32.0 °F 100% 30.59 in 2.0 mi Calm Calm - N/A   Mostly Cloudy
10:43 AM 33.1 °F - 33.1 °F 100% 30.59 in 3.0 mi Calm Calm - N/A   Mostly Cloudy
10:51 AM 33.8 °F - 32.0 °F 93% 30.59 in 2.0 mi Calm Calm - N/A   Mostly Cloudy
10:53 AM 33.1 °F - 32.0 °F 96% 30.60 in 2.5 mi Calm Calm - N/A   Mostly Cloudy
10:55 AM 33.1 °F - 32.0 °F 96% 30.58 in 3.0 mi Calm Calm - N/A   Scattered Clouds
11:06 AM 35.1 °F - 33.1 °F 92% 30.58 in 8.0 mi Calm Calm - N/A   Mostly Cloudy
11:15 AM 35.1 °F - 33.1 °F 92% 30.57 in 10.0 mi Calm Calm - N/A   Partly Cloudy
11:53 AM 39.9 °F - 34.0 °F 79% 30.56 in 10.0 mi Calm Calm - N/A   Clear
12:53 PM 43.0 °F - 35.1 °F 74% 30.52 in 10.0 mi Calm Calm - N/A   Clear
1:53 PM 45.0 °F - 35.1 °F 68% 30.49 in 10.0 mi Calm Calm - N/A   Clear
2:53 PM 46.9 °F - 35.1 °F 63% 30.48 in 10.0 mi Calm Calm - N/A   Clear
3:53 PM 48.0 °F - 35.1 °F 61% 30.48 in 10.0 mi Calm Calm - N/A   Clear
4:53 PM 44.1 °F - 34.0 °F 68% 30.48 in 10.0 mi Calm Calm - N/A   Clear
5:53 PM 37.0 °F - 32.0 °F 82% 30.47 in 10.0 mi Calm Calm - N/A   Clear
6:53 PM 36.0 °F 31.1 °F 32.0 °F 86% 30.48 in 10.0 mi East 5.8 mph - N/A   Clear
7:53 PM 35.1 °F 28.6 °F 32.0 °F 89% 30.47 in 10.0 mi East 8.1 mph - N/A   Clear
8:53 PM 33.1 °F 30.0 °F 30.0 °F 89% 30.48 in 10.0 mi East 3.5 mph - N/A   Clear
9:53 PM 32.0 °F 28.7 °F 30.0 °F 92% 30.48 in 7.0 mi South 3.5 mph - N/A   Clear
10:53 PM 28.9 °F 21.9 °F 27.0 °F 92% 30.47 in 9.0 mi SE 6.9 mph - N/A   Clear
11:53 PM 30.9 °F - 28.9 °F 92% 30.45 in 8.0 mi Calm Calm - N/A   Clear